timestamp,wind_dir_avg,wind_spd_avg,wind_spd_max_dir,wind_spd_gust,battery_voltage,lat,long
2022-09-22 00:04:00+00:00,171.0,7.44,177.0,8.75,12.57,47.59359,-54.27349
2022-09-22 00:14:00+00:00,177.0,7.69,189.0,8.86,12.57,47.59359,-54.27349
2022-09-22 00:24:00+00:00,180.0,8.27,188.0,9.28,12.57,47.59359,-54.27349
2022-09-22 00:34:00+00:00,175.0,7.18,173.0,8.32,12.57,47.59359,-54.27349
2022-09-22 00:44:00+00:00,174.0,7.33,177.0,8.48,12.57,47.59359,-54.27349
2022-09-22 00:54:00+00:00,168.0,6.43,172.0,7.37,12.57,47.59359,-54.27349
2022-09-22 01:04:00+00:00,168.0,5.6,164.0,6.1,12.57,47.59359,-54.27349
2022-09-22 01:14:01+00:00,168.0,6.96,151.0,8.57,12.57,47.59359,-54.27349
2022-09-22 01:24:01+00:00,171.0,6.56,149.0,7.56,12.57,47.59359,-54.27349
2022-09-22 01:34:01+00:00,168.0,6.21,153.0,7.26,12.57,47.59359,-54.27349
2022-09-22 01:44:01+00:00,170.0,6.27,150.0,7.21,12.57,47.59359,-54.27349
2022-09-22 01:54:01+00:00,168.0,6.33,187.0,7.11,12.57,47.59359,-54.27349
2022-09-22 02:04:01+00:00,171.0,6.23,170.0,6.96,12.57,47.59359,-54.27349
2022-09-22 02:14:00+00:00,175.0,7.53,160.0,9.02,12.49,47.59359,-54.27349
2022-09-22 02:24:00+00:00,167.0,6.6,157.0,7.94,12.49,47.59359,-54.27349
2022-09-22 02:34:00+00:00,164.0,7.63,147.0,8.56,12.49,47.59359,-54.27349
2022-09-22 02:44:00+00:00,168.0,7.03,172.0,8.15,12.49,47.59359,-54.27349
2022-09-22 02:54:00+00:00,171.0,6.45,185.0,7.37,12.49,47.59359,-54.27349
2022-09-22 03:04:00+00:00,174.0,6.69,162.0,7.44,12.49,47.59359,-54.27349
2022-09-22 03:14:00+00:00,169.0,6.68,172.0,7.79,12.49,47.59359,-54.27349
2022-09-22 03:24:00+00:00,182.0,7.94,189.0,9.0,12.49,47.59359,-54.27349
2022-09-22 03:34:00+00:00,165.0,7.37,156.0,8.75,12.49,47.59359,-54.27349
2022-09-22 03:44:00+00:00,173.0,7.44,172.0,8.32,12.49,47.59359,-54.27349
2022-09-22 03:54:00+00:00,149.0,7.34,149.0,8.15,12.49,47.59359,-54.27349
2022-09-22 04:04:00+00:00,164.0,7.6,153.0,8.95,12.49,47.59359,-54.27349
2022-09-22 04:14:01+00:00,169.0,6.97,148.0,7.98,12.49,47.59359,-54.27349
2022-09-22 04:24:01+00:00,161.0,6.7,159.0,7.76,12.49,47.59359,-54.27349
2022-09-22 04:34:01+00:00,163.0,6.51,172.0,8.03,12.49,47.59359,-54.27349
2022-09-22 04:44:01+00:00,160.0,6.52,151.0,7.52,12.49,47.59359,-54.27349
2022-09-22 04:54:01+00:00,155.0,5.63,153.0,7.57,12.49,47.59359,-54.27349
2022-09-22 05:04:01+00:00,143.0,7.0,143.0,7.66,12.49,47.59359,-54.27349
2022-09-22 05:14:01+00:00,151.0,5.37,147.0,6.55,12.49,47.59359,-54.27349
2022-09-22 05:24:01+00:00,149.0,5.04,157.0,5.98,12.49,47.59359,-54.27349
2022-09-22 05:34:01+00:00,143.0,4.06,147.0,5.12,12.49,47.59359,-54.27349
2022-09-22 05:44:01+00:00,157.0,5.74,147.0,7.36,12.49,47.59359,-54.27349
2022-09-22 05:54:01+00:00,156.0,5.06,146.0,5.97,12.49,47.59359,-54.27349
2022-09-22 06:04:01+00:00,167.0,5.49,168.0,6.65,12.49,47.59359,-54.27349
2022-09-22 06:14:01+00:00,163.0,5.46,166.0,6.24,12.41,47.59359,-54.27349
2022-09-22 06:24:01+00:00,169.0,5.61,173.0,6.72,12.41,47.59359,-54.27349
2022-09-22 06:34:01+00:00,170.0,5.84,164.0,6.3,12.41,47.59359,-54.27349
2022-09-22 06:44:01+00:00,166.0,5.22,164.0,6.46,12.41,47.59359,-54.27349
2022-09-22 06:54:01+00:00,164.0,6.27,156.0,7.21,12.41,47.59359,-54.27349
2022-09-22 07:04:01+00:00,164.0,6.58,155.0,8.21,12.41,47.59359,-54.27349
2022-09-22 07:14:01+00:00,160.0,6.85,170.0,8.01,12.41,47.59359,-54.27349
2022-09-22 07:24:01+00:00,146.0,7.59,139.0,8.81,12.41,47.59359,-54.27349
2022-09-22 07:34:01+00:00,149.0,6.35,163.0,8.43,12.41,47.59359,-54.27349
2022-09-22 07:44:01+00:00,158.0,3.45,169.0,4.31,12.41,47.59359,-54.27349
2022-09-22 07:54:01+00:00,146.0,3.3,146.0,3.96,12.41,47.59359,-54.27349
2022-09-22 08:04:01+00:00,139.0,5.03,141.0,6.22,12.41,47.59359,-54.27349
2022-09-22 08:14:01+00:00,146.0,6.78,146.0,8.63,12.41,47.59359,-54.27349
2022-09-22 08:24:01+00:00,147.0,6.56,141.0,9.16,12.41,47.59359,-54.27349
2022-09-22 08:34:01+00:00,152.0,6.61,140.0,7.72,12.41,47.59359,-54.27349
2022-09-22 08:44:01+00:00,140.0,7.24,136.0,8.22,12.41,47.59359,-54.27349
2022-09-22 08:54:01+00:00,146.0,9.16,146.0,11.57,12.41,47.59359,-54.27349
2022-09-22 09:04:01+00:00,141.0,7.41,148.0,8.6,12.41,47.59359,-54.27349
2022-09-22 09:14:01+00:00,128.0,6.6,125.0,8.11,12.33,47.59359,-54.27349
2022-09-22 09:24:01+00:00,146.0,7.13,139.0,8.07,12.33,47.59359,-54.27349
2022-09-22 09:34:01+00:00,153.0,6.84,151.0,8.0,12.33,47.59359,-54.27349
2022-09-22 09:44:01+00:00,139.0,9.08,142.0,10.2,12.33,47.59359,-54.27349
2022-09-22 09:54:01+00:00,165.0,6.85,171.0,8.03,12.33,47.59359,-54.27349
2022-09-22 10:04:01+00:00,176.0,7.12,175.0,8.9,12.33,47.59359,-54.27349
2022-09-22 10:14:01+00:00,167.0,7.39,170.0,8.69,12.33,47.59359,-54.27349
2022-09-22 10:24:01+00:00,166.0,8.1,167.0,9.53,12.33,47.59359,-54.27349
2022-09-22 10:34:01+00:00,167.0,7.77,172.0,9.14,12.33,47.59359,-54.27349
2022-09-22 10:44:01+00:00,151.0,7.71,156.0,8.48,12.33,47.59359,-54.27349
2022-09-22 10:54:01+00:00,146.0,6.9,147.0,7.68,12.33,47.59359,-54.27349
2022-09-22 11:04:01+00:00,151.0,6.69,161.0,8.07,12.33,47.59359,-54.27349
2022-09-22 11:14:00+00:00,154.0,7.17,166.0,8.1,12.41,47.59359,-54.27349
2022-09-22 11:24:00+00:00,150.0,9.71,152.0,10.34,12.41,47.59359,-54.27349
2022-09-22 11:34:00+00:00,155.0,9.14,156.0,10.22,12.41,47.59359,-54.27349
2022-09-22 11:44:00+00:00,162.0,8.12,164.0,9.04,12.41,47.59359,-54.27349
2022-09-22 11:54:00+00:00,164.0,8.72,162.0,9.65,12.41,47.59359,-54.27349
2022-09-22 12:04:00+00:00,172.0,8.34,171.0,9.29,12.41,47.59359,-54.27349
2022-09-22 12:14:01+00:00,168.0,9.09,171.0,9.8,12.57,47.59359,-54.27349
2022-09-22 12:24:01+00:00,163.0,7.47,160.0,8.63,12.57,47.59359,-54.27349
2022-09-22 12:34:01+00:00,160.0,5.21,162.0,6.0,12.57,47.59359,-54.27349
2022-09-22 12:44:01+00:00,164.0,6.12,153.0,8.01,12.57,47.59359,-54.27349
2022-09-22 12:54:01+00:00,166.0,6.83,170.0,7.63,12.57,47.59359,-54.27349
2022-09-22 13:04:01+00:00,161.0,6.78,164.0,7.74,12.57,47.59359,-54.27349
2022-09-22 13:14:01+00:00,165.0,7.91,168.0,9.14,13.29,47.59359,-54.27349
2022-09-22 13:24:01+00:00,162.0,7.66,166.0,8.53,13.29,47.59359,-54.27349
2022-09-22 13:34:01+00:00,158.0,7.94,157.0,8.85,13.29,47.59359,-54.27349
2022-09-22 13:44:01+00:00,150.0,7.36,149.0,8.88,13.29,47.59359,-54.27349
2022-09-22 13:54:01+00:00,155.0,8.89,159.0,10.22,13.29,47.59359,-54.27349
2022-09-22 14:04:01+00:00,165.0,7.06,159.0,8.08,13.29,47.59359,-54.27349
2022-09-22 14:14:00+00:00,158.0,8.15,155.0,9.39,13.37,47.59359,-54.27349
2022-09-22 14:24:00+00:00,168.0,8.49,168.0,9.21,13.37,47.59359,-54.27349
2022-09-22 14:34:00+00:00,169.0,7.34,174.0,9.57,13.37,47.59359,-54.27349
2022-09-22 14:44:00+00:00,169.0,8.29,172.0,9.08,13.37,47.59359,-54.27349
2022-09-22 14:54:00+00:00,168.0,8.12,170.0,9.18,13.37,47.59359,-54.27349
2022-09-22 15:04:00+00:00,166.0,8.78,166.0,9.57,13.37,47.59359,-54.27349
2022-09-22 15:14:00+00:00,166.0,8.31,165.0,10.12,13.6,47.59359,-54.27349
2022-09-22 15:24:00+00:00,170.0,7.52,172.0,8.15,13.6,47.59359,-54.27349
2022-09-22 15:34:00+00:00,169.0,7.7,168.0,8.83,13.6,47.59359,-54.27349
2022-09-22 15:44:00+00:00,174.0,8.09,173.0,8.81,13.6,47.59359,-54.27349
2022-09-22 15:54:00+00:00,175.0,7.49,176.0,8.45,13.6,47.59359,-54.27349
2022-09-22 16:04:00+00:00,182.0,6.29,182.0,6.76,13.6,47.59359,-54.27349
2022-09-22 16:14:00+00:00,184.0,6.98,184.0,7.35,13.68,47.59359,-54.27349
2022-09-22 16:24:00+00:00,182.0,7.38,181.0,8.3,13.68,47.59359,-54.27349
2022-09-22 16:34:00+00:00,181.0,6.96,180.0,7.69,13.68,47.59359,-54.27349
2022-09-22 16:44:00+00:00,176.0,7.0,175.0,7.52,13.68,47.59359,-54.27349
2022-09-22 16:54:00+00:00,178.0,7.76,180.0,8.8,13.68,47.59359,-54.27349
2022-09-22 17:04:00+00:00,183.0,6.69,185.0,7.88,13.68,47.59359,-54.27349
2022-09-22 17:14:01+00:00,184.0,6.54,184.0,7.16,13.76,47.59359,-54.27349
2022-09-22 17:24:01+00:00,189.0,7.22,189.0,7.7,13.76,47.59359,-54.27349
2022-09-22 17:34:01+00:00,193.0,7.24,191.0,7.93,13.76,47.59359,-54.27349
2022-09-22 17:44:01+00:00,193.0,7.45,191.0,8.28,13.76,47.59359,-54.27349
2022-09-22 17:54:01+00:00,192.0,7.15,190.0,7.71,13.76,47.59359,-54.27349
2022-09-22 18:04:01+00:00,189.0,6.62,193.0,7.14,13.76,47.59359,-54.27349
2022-09-22 18:14:01+00:00,191.0,5.97,191.0,6.53,13.68,47.59359,-54.27349
2022-09-22 18:24:01+00:00,190.0,5.17,190.0,5.65,13.68,47.59359,-54.27349
2022-09-22 18:34:01+00:00,188.0,5.7,189.0,6.51,13.68,47.59359,-54.27349
2022-09-22 18:44:01+00:00,192.0,5.78,190.0,7.35,13.68,47.59359,-54.27349
2022-09-22 18:54:01+00:00,203.0,5.44,205.0,6.1,13.68,47.59359,-54.27349
2022-09-22 19:04:01+00:00,202.0,5.66,209.0,6.31,13.68,47.59359,-54.27349
2022-09-22 19:14:01+00:00,201.0,5.89,201.0,6.93,13.37,47.59359,-54.27349
2022-09-22 19:24:01+00:00,213.0,4.16,215.0,4.9,13.37,47.59359,-54.27349
2022-09-22 19:34:01+00:00,210.0,4.95,210.0,5.62,13.37,47.59359,-54.27349
2022-09-22 19:44:01+00:00,207.0,4.55,207.0,5.28,13.37,47.59359,-54.27349
2022-09-22 19:54:01+00:00,198.0,4.81,203.0,5.3,13.37,47.59359,-54.27349
2022-09-22 20:04:01+00:00,191.0,5.19,191.0,5.52,13.37,47.59359,-54.27349
2022-09-22 20:14:00+00:00,206.0,4.66,205.0,5.65,13.37,47.59359,-54.27349
2022-09-22 20:24:00+00:00,204.0,5.35,203.0,5.71,13.37,47.59359,-54.27349
2022-09-22 20:34:00+00:00,204.0,4.72,205.0,5.12,13.37,47.59359,-54.27349
2022-09-22 20:44:00+00:00,200.0,3.77,200.0,4.1,13.37,47.59359,-54.27349
2022-09-22 20:54:00+00:00,190.0,5.64,189.0,6.71,13.37,47.59359,-54.27349
2022-09-22 21:04:00+00:00,191.0,5.8,193.0,6.39,13.37,47.59359,-54.27349
2022-09-22 21:14:00+00:00,188.0,6.97,186.0,7.75,12.97,47.59359,-54.27349
2022-09-22 21:24:00+00:00,198.0,5.44,194.0,5.99,12.97,47.59359,-54.27349
2022-09-22 21:34:00+00:00,201.0,4.96,200.0,5.42,12.97,47.59359,-54.27349
2022-09-22 21:44:00+00:00,206.0,4.64,207.0,5.27,12.97,47.59359,-54.27349
2022-09-22 21:54:00+00:00,187.0,4.28,184.0,4.79,12.97,47.59359,-54.27349
2022-09-22 22:04:00+00:00,187.0,4.98,187.0,5.58,12.97,47.59359,-54.27349
2022-09-22 22:14:00+00:00,183.0,5.27,183.0,5.61,12.57,47.59359,-54.27349
2022-09-22 22:24:00+00:00,186.0,5.44,188.0,6.41,12.57,47.59359,-54.27349
2022-09-22 22:34:00+00:00,186.0,6.05,187.0,6.84,12.57,47.59359,-54.27349
2022-09-22 22:44:00+00:00,189.0,6.47,189.0,7.26,12.57,47.59359,-54.27349
2022-09-22 22:54:00+00:00,187.0,6.05,184.0,7.06,12.57,47.59359,-54.27349
2022-09-22 23:04:00+00:00,189.0,6.31,191.0,6.95,12.57,47.59359,-54.27349
2022-09-22 23:14:00+00:00,194.0,5.63,195.0,6.15,12.57,47.59359,-54.27349
2022-09-22 23:24:00+00:00,193.0,4.92,195.0,5.35,12.57,47.59359,-54.27349
2022-09-22 23:34:00+00:00,185.0,5.36,189.0,5.78,12.57,47.59359,-54.27349
2022-09-22 23:44:00+00:00,186.0,5.06,188.0,5.64,12.57,47.59359,-54.27349
2022-09-22 23:54:00+00:00,193.0,5.65,195.0,6.45,12.57,47.59359,-54.27349
